{"data":{"norad_id":62855,"epoch":"2026-05-25T05:35:27.038112Z","epoch_age_seconds":51349,"freshness":"FRESH","line1":"1 62855U 25022B   26145.23295183  .00026707  00000+0  90983-3 0  9991","line2":"2 62855  53.1594 133.7519 0002222  94.3320 265.7934 15.30226107 73624","mean_motion":15.30226107,"eccentricity":0.0002222,"inclination_deg":53.1594,"raan_deg":133.7519,"arg_perigee_deg":94.332,"mean_anomaly_deg":265.7934,"bstar":0.00090983,"rev_number":7362,"period_min":94.103740186678,"perigee_km":473.614322222,"apogee_km":476.65991724081,"semimajor_km":6853.2741197314,"source":"CELESTRAK","updated_at":"2026-05-25T13:38:19.782994Z"}}